Location: Tamazert
(32.6352°N, 5.2072°W)
Time: 19:31:00
(UTC+00:00)

Courier 1B - Pass Details

Date: 06 October 2022
Orbit: 962 x 1209 km, 28.3° (Epoch: 27 November)

Event Time Altitude Azimuth Distance (km) Brightness Sun altitude
Rises 19:47:06 0° 261° (W) 3,792 11.8 -23.5°
Reaches altitude 10° 19:52:17 10° 228° (SW) 2,773 10.3 -24.6°
Maximum altitude 19:54:07 11° 212° (SSW) 2,667 10.0 -25.0°
Drops below altitude 10° 19:55:56 10° 196° (SSW) 2,734 9.9 -25.3°
Enters shadow 19:58:41 - 175° (S) 3,132 10.0 -25.9°
